[[{"header":{"parameterUnit":"m.s-1","parameterCategory":1,"la1":30.2991,"la2":30.254,"lo1":-89.0895,"lo2":-89.0444,"dy":0.0017,"dx":0.0017,"nx":28,"ny":28,"refTime":"2025-11-19T03:00:00:Z","depth":0,"parameterNumber":2,"parameterNumberName":"U-component_of_WINDS"},"data":[0,0,0,0,0,0,0,0,0,0,0,0,0,0,0,0,0,0,0,0,0,0,0,0,0,0,0,0,0,0,0,0,0,0,0,0,0,0,0,0,0,0,0,0,0,0,0,0,0,0,0,0,0,0,0,0,0,0,-0.686,-0.686,0,-0.6857,-0.6857,-0.6857,-0.6814,-0.6813,-0.6812,-0.6811,-0.6813,-0.6814,-0.6815,0,0,0,0,0,0,0,0,0,0,0,0,0,-0.6833,-0.6834,-0.686,-0.686,-0.686,-0.6857,-0.6857,-0.6857,-0.6814,-0.6813,-0.6812,-0.681,-0.6812,-0.6814,-0.6815,0,0,0,0,0,0,0,0,0,0,0,0,0,-0.6839,-0.6834,-0.686,-0.6838,-0.6836,-0.6857,-0.6857,-0.6857,-0.6815,-0.6813,-0.6811,-0.681,-0.6812,-0.6814,-0.6815,-0.6858,0,0,-0.682,-0.6821,0,0,0,0,0,0,0,0,-0.6839,-0.684,-0.6841,-0.684,-0.6837,-0.6834,-0.6848,-0.6858,-0.6815,-0.6823,-0.6811,-0.6809,-0.6822,-0.6822,-0.6826,-0.6858,-0.6858,-0.682,-0.6821,-0.6822,-0.6822,0,0,0,0,0,0,0,-0.6838,-0.684,-0.6859,-0.6841,-0.6839,-0.683,-0.6829,-0.685,-0.6832,-0.6822,-0.6819,-0.6819,-0.682,-0.6824,-0.6825,-0.6858,-0.682,-0.6822,-0.6823,-0.6823,-0.6928,-0.6929,0,0,0,0,0,0,-0.684,-0.684,-0.6859,-0.6859,-0.6834,-0.6832,-0.6831,-0.6837,-0.6831,-0.6829,-0.682,-0.6817,-0.6822,-0.6823,-0.6825,-0.6876,-0.6822,-0.6823,-0.6824,-0.6926,-0.6928,-0.693,0,0,0,0,0,0,-0.684,-0.6842,-0.6859,-0.6848,-0.685,-0.6834,-0.6841,-0.6838,-0.6842,-0.683,-0.6827,-0.6827,-0.6821,-0.6823,-0.685,-0.6875,-0.6824,-0.6826,-0.6924,-0.6926,-0.6929,-0.6977,0,0,0,0,0,0,-0.6839,-0.6843,-0.6858,-0.6849,-0.6851,-0.6883,-0.6843,-0.6839,-0.6844,-0.6839,-0.6836,-0.6834,-0.682,-0.6848,-0.6852,-0.6877,-0.6827,-0.6921,-0.6925,-0.6928,-0.6973,-0.6981,-0.6988,0,0,0,0,0,-0.6838,-0.6872,-0.6859,-0.6861,-0.6869,-0.6884,-0.6885,-0.6867,-0.6846,-0.6862,-0.6855,-0.6834,-0.6872,-0.6851,-0.6855,-0.6881,-0.692,-0.6924,-0.6928,-0.697,-0.698,-0.6988,0,0,0,0,0,0,-0.6886,-0.6871,-0.6855,-0.6887,-0.6887,-0.6877,-0.6896,-0.6878,-0.6886,-0.6881,-0.686,-0.686,-0.6891,-0.6888,-0.6866,-0.6923,-0.6892,-0.6897,-0.6923,-0.6932,-0.6939,-0.694,-0.6828,0,0,0,0,0,-0.6899,-0.6912,-0.6899,-0.6928,-0.6929,-0.6913,-0.6919,-0.6905,-0.6905,-0.6905,-0.69,-0.6902,-0.6914,-0.6923,-0.6934,-0.6973,-0.6972,-0.6992,-0.7,-0.7006,-0.7011,-0.7032,-0.7042,-0.6943,-0.6943,-0.6943,0,0,-0.6929,-0.6922,-0.6931,-0.6937,-0.6936,-0.6951,-0.6913,-0.693,-0.6941,-0.6908,-0.6933,-0.693,-0.6931,-0.6964,-0.6979,-0.6963,-0.7038,-0.7011,-0.7016,-0.7018,-0.7037,-0.7047,-0.7055,-0.6946,-0.6945,-0.6945,0,0,-0.699,-0.6985,-0.7009,-0.7008,-0.7006,-0.6995,-0.7001,-0.6994,-0.6989,-0.7014,-0.6989,-0.7003,-0.7025,-0.7027,-0.7031,-0.7093,-0.7074,-0.7097,-0.7136,-0.7157,-0.7165,-0.7171,-0.7195,-0.7203,-0.7102,-0.7102,-0.7102,0,-0.7027,-0.7046,-0.7025,-0.7043,-0.7047,-0.7016,-0.7041,-0.7042,-0.7044,-0.7048,-0.703,-0.7057,-0.7055,-0.7089,-0.7104,-0.7108,-0.7116,-0.7097,-0.7165,-0.7172,-0.7178,-0.7199,-0.7208,-0.7105,-0.7104,-0.7104,-0.7104,0,-0.7093,-0.7107,-0.7127,-0.7128,-0.7134,-0.7156,-0.7139,-0.7148,-0.7134,-0.7125,-0.7152,-0.7149,-0.7159,-0.7165,-0.7152,-0.7198,-0.7189,-0.7168,-0.7137,-0.719,-0.721,-0.7219,-0.7109,-0.7108,-0.7107,-0.7106,0,0,-0.7184,-0.7172,-0.718,-0.718,-0.7175,-0.7187,-0.7208,-0.7216,-0.7225,-0.7227,-0.7246,-0.7265,-0.7246,-0.725,-0.7237,-0.7255,-0.7306,-0.7233,-0.7233,-0.7247,-0.7358,-0.7374,-0.7384,-0.7293,-0.7295,-0.7296,-0.7358,0,-0.7243,-0.7277,-0.7258,-0.7295,-0.7309,-0.7279,-0.7298,-0.7298,-0.7291,-0.7303,-0.7295,-0.7309,-0.7283,-0.7285,-0.7302,-0.7296,-0.7328,-0.7291,-0.7312,-0.7313,-0.7313,-0.7394,-0.7411,-0.7469,-0.7366,-0.7367,-0.7368,0,-0.7317,-0.7321,-0.7359,-0.7352,-0.7357,-0.7374,-0.738,-0.7391,-0.7391,-0.7385,-0.739,-0.7372,-0.7394,-0.7363,-0.7394,-0.7369,-0.7377,-0.7375,-0.7377,-0.7379,-0.7344,-0.7399,-0.7488,-0.7497,-0.738,-0.7379,-0.7378,0,-0.738,-0.7396,-0.7421,-0.7422,-0.7414,-0.7427,-0.7424,-0.7422,-0.7429,-0.7435,-0.7439,-0.7448,-0.7454,-0.7462,-0.7448,-0.7426,-0.7481,-0.7449,-0.7478,-0.7479,-0.7492,-0.7491,-0.7584,-0.7495,-0.7495,-0.7495,-0.7495,0,-0.7449,-0.7474,-0.7449,-0.7465,-0.7492,-0.7471,-0.7499,-0.7494,-0.7492,-0.7507,-0.7483,-0.7498,-0.7478,-0.7492,-0.7482,-0.751,-0.7512,-0.7509,-0.7506,-0.7511,-0.7512,-0.7517,-0.7513,-0.7497,-0.7497,-0.7496,-0.7496,0,-0.7525,-0.7509,-0.7535,-0.7525,-0.7523,-0.7544,-0.7536,-0.7551,-0.7542,-0.7561,-0.7565,-0.7551,-0.7566,-0.7553,-0.7568,-0.7561,-0.7598,-0.7589,-0.7598,-0.7595,-0.7626,-0.7624,-0.7725,-0.7738,-0.7641,-0.7642,-0.7642,0,-0.757,-0.7589,-0.758,-0.7588,-0.7586,-0.7599,-0.7605,-0.7585,-0.7593,-0.7594,-0.761,-0.7622,-0.7631,-0.7657,-0.7649,-0.7661,-0.7652,-0.7687,-0.7654,-0.7659,-0.7654,-0.7654,-0.7656,-0.7694,-0.7696,-0.7696,-0.7697,0,-0.7653,-0.7644,-0.7653,-0.7659,-0.7666,-0.7671,-0.7673,-0.7682,-0.7661,-0.7671,-0.7685,-0.7692,-0.7707,-0.772,-0.7729,-0.7728,-0.7711,-0.7707,-0.7715,-0.7722,-0.7726,-0.7725,-0.7617,-0.7706,-0.7705,-0.7704,-0.7704,-0.7703,-0.7716,-0.7731,-0.7727,-0.7738,-0.7737,-0.774,-0.7754,-0.7746,-0.7757,-0.7766,-0.7754,-0.7772,-0.7772,-0.7782,-0.7784,-0.7799,-0.7785,-0.7795,-0.7798,-0.7802,-0.7806,-0.7723,-0.78,-0.78,-0.78,-0.78,-0.78,0,-0.7798,-0.7794,-0.7804,-0.7807,-0.7816,-0.7796,-0.7798,-0.7808,-0.7823,-0.7824,-0.7833,-0.785,-0.7863,-0.7856,-0.7868,-0.7881,-0.7873,-0.7885,-0.7885,-0.7885,-0.7818,-0.7811,-0.7892,-0.7892,-0.7892,-0.7891,-0.7891,-0.7891,-0.7842,-0.7866,-0.7857,-0.7882,-0.7878,-0.7894,-0.7897,-0.79,-0.7901,-0.792,-0.793,-0.7925,-0.7924,-0.7935,-0.7947,-0.7945,-0.7951,-0.7966,-0.7961,-0.7899,-0.789,-0.7881,-0.7874,-0.7967,-0.7967,-0.8027,-0.8027,-0.8028]},{"header":{"parameterUnit":"m.s-1","parameterCategory":1,"la1":30.2991,"la2":30.254,"lo1":-89.0895,"lo2":-89.0444,"dy":0.0017,"dx":0.0017,"nx":28,"ny":28,"refTime":"2025-11-19T03:00:00:Z","depth":0,"parameterNumber":3,"parameterNumberName":"V-component_of_WINDS"},"data":[0,0,0,0,0,0,0,0,0,0,0,0,0,0,0,0,0,0,0,0,0,0,0,0,0,0,0,0,0,0,0,0,0,0,0,0,0,0,0,0,0,0,0,0,0,0,0,0,0,0,0,0,0,0,0,0,0,0,0.0818,0.0819,0,0.0854,0.0855,0.0855,0.0893,0.0894,0.0894,0.0895,0.0931,0.0932,0.0932,0,0,0,0,0,0,0,0,0,0,0,0,0,0.0782,0.0782,0.0818,0.0819,0.0819,0.0854,0.0855,0.0855,0.0893,0.0894,0.0895,0.0895,0.0931,0.0931,0.0932,0,0,0,0,0,0,0,0,0,0,0,0,0,0.0805,0.0782,0.0818,0.0842,0.0845,0.0854,0.0855,0.0855,0.0893,0.0894,0.0895,0.0895,0.0931,0.0931,0.0932,0.092,0,0,0.0934,0.0935,0,0,0,0,0,0,0,0,0.0804,0.0807,0.0838,0.0841,0.0843,0.087,0.0855,0.0877,0.0893,0.0875,0.0895,0.0896,0.091,0.0913,0.0918,0.0922,0.0924,0.0934,0.0935,0.0935,0.0935,0,0,0,0,0,0,0,0.0802,0.0805,0.0832,0.0839,0.0842,0.0851,0.0855,0.0859,0.0887,0.0876,0.0879,0.0883,0.0912,0.0917,0.0919,0.0924,0.0934,0.0935,0.0935,0.0936,0.0921,0.092,0,0,0,0,0,0,0.0797,0.0804,0.0831,0.0834,0.0825,0.0851,0.0856,0.0861,0.0888,0.0892,0.0882,0.0885,0.0915,0.0918,0.092,0.0909,0.0935,0.0936,0.0936,0.0922,0.0921,0.092,0,0,0,0,0,0,0.0796,0.0799,0.083,0.0819,0.0824,0.0851,0.0856,0.0861,0.0866,0.0892,0.0897,0.0882,0.0916,0.0919,0.092,0.091,0.0936,0.0937,0.0923,0.0922,0.0921,0.0885,0,0,0,0,0,0,0.0795,0.0799,0.0794,0.0819,0.0824,0.0829,0.0855,0.0861,0.0867,0.0871,0.0893,0.0898,0.0917,0.0919,0.0921,0.0912,0.0937,0.0924,0.0922,0.0921,0.0887,0.0883,0.0879,0,0,0,0,0,0.0794,0.0783,0.0794,0.0797,0.082,0.0829,0.0832,0.0854,0.0866,0.0863,0.0879,0.0897,0.0911,0.0919,0.0921,0.0912,0.0925,0.0923,0.0921,0.0889,0.0884,0.0879,0,0,0,0,0,0,0.0756,0.0786,0.0799,0.0796,0.081,0.0835,0.0831,0.0847,0.0857,0.086,0.0887,0.0892,0.089,0.0901,0.0909,0.0902,0.092,0.0919,0.0895,0.089,0.0886,0.0884,0.0938,0,0,0,0,0,0.0747,0.0752,0.0778,0.0773,0.0779,0.0804,0.0808,0.0824,0.0839,0.0845,0.0862,0.0875,0.0883,0.0887,0.0895,0.0889,0.0895,0.0884,0.088,0.0876,0.0875,0.0873,0.0869,0.0914,0.0914,0.0914,0,0,0.0729,0.0747,0.0748,0.0766,0.0778,0.0783,0.0808,0.0812,0.0815,0.0845,0.0848,0.086,0.0877,0.0875,0.0874,0.0884,0.0863,0.0874,0.0871,0.0872,0.0871,0.0866,0.0862,0.0913,0.0913,0.0913,0,0,0.0699,0.0713,0.071,0.0722,0.074,0.0757,0.0756,0.0779,0.0789,0.0792,0.0815,0.0819,0.0831,0.0843,0.085,0.0824,0.0841,0.0826,0.0805,0.0802,0.0799,0.0796,0.0787,0.0784,0.0824,0.0824,0.0824,0,0.0675,0.0683,0.0706,0.0709,0.0716,0.0744,0.0742,0.0752,0.0772,0.0776,0.0787,0.0803,0.0816,0.0817,0.0811,0.0816,0.0816,0.0824,0.0797,0.0795,0.0792,0.0784,0.0781,0.0822,0.0823,0.0823,0.0823,0,0.0652,0.0657,0.0652,0.0671,0.0678,0.0678,0.0702,0.0706,0.0721,0.0736,0.0739,0.0756,0.0768,0.077,0.0784,0.0772,0.0778,0.0792,0.0811,0.0785,0.0779,0.0776,0.082,0.082,0.0821,0.0821,0,0,0.0599,0.0632,0.063,0.0639,0.0661,0.0666,0.0667,0.0679,0.0682,0.0695,0.0697,0.0707,0.0721,0.0729,0.0745,0.0743,0.0722,0.0758,0.0759,0.0751,0.0711,0.07,0.0696,0.0734,0.0733,0.0733,0.071,0,0.0573,0.0578,0.0599,0.0597,0.0602,0.0629,0.063,0.0643,0.0658,0.0664,0.068,0.0687,0.0704,0.0709,0.0708,0.0725,0.0715,0.0727,0.0736,0.0736,0.0731,0.0693,0.0681,0.0659,0.0707,0.0707,0.0706,0,0.0544,0.0556,0.0554,0.0577,0.058,0.058,0.0594,0.0599,0.0615,0.0626,0.0635,0.0654,0.0656,0.0674,0.0678,0.0686,0.0691,0.0699,0.0699,0.0701,0.072,0.0694,0.0652,0.0649,0.0702,0.0702,0.0703,0,0.0507,0.0522,0.0523,0.053,0.0556,0.0556,0.0567,0.0584,0.059,0.0602,0.0606,0.0618,0.0624,0.0633,0.0654,0.0664,0.0656,0.0674,0.0665,0.0664,0.0662,0.0662,0.0621,0.0664,0.0664,0.0664,0.0664,0,0.0476,0.0474,0.0506,0.0507,0.0506,0.0531,0.0528,0.0542,0.0557,0.0561,0.0584,0.0587,0.0614,0.0621,0.0637,0.0638,0.0641,0.0649,0.0654,0.0648,0.0647,0.0652,0.0654,0.0663,0.0664,0.0664,0.0664,0,0.0434,0.0456,0.0459,0.0484,0.049,0.0488,0.0509,0.0511,0.0527,0.0531,0.0534,0.0558,0.0567,0.0589,0.0602,0.0613,0.061,0.0618,0.0605,0.0608,0.0597,0.0598,0.0558,0.0554,0.0599,0.0599,0.0599,0,0.0414,0.0413,0.0438,0.0442,0.0452,0.0459,0.0466,0.049,0.0496,0.0515,0.0514,0.0524,0.0534,0.0546,0.0565,0.0576,0.0585,0.057,0.0587,0.0581,0.0585,0.0585,0.0586,0.0567,0.0566,0.0565,0.0565,0,0.0375,0.0386,0.0395,0.0407,0.0415,0.0426,0.0438,0.044,0.0467,0.0473,0.0482,0.0489,0.0504,0.0514,0.0528,0.0539,0.0557,0.056,0.0558,0.0552,0.0545,0.0549,0.0596,0.0561,0.0561,0.0561,0.0562,0.0562,0.0344,0.0345,0.0362,0.0372,0.0383,0.0394,0.0397,0.0414,0.0422,0.0436,0.0449,0.0457,0.0474,0.0494,0.0504,0.0511,0.052,0.0517,0.0517,0.0516,0.0513,0.0543,0.0513,0.0513,0.0513,0.0514,0.0514,0,0.0307,0.032,0.0328,0.0345,0.0352,0.0368,0.0382,0.0387,0.0394,0.0408,0.0417,0.0428,0.0438,0.0457,0.0469,0.047,0.0479,0.0473,0.0473,0.0476,0.0504,0.0505,0.0466,0.0466,0.0466,0.0466,0.0466,0.0466,0.0289,0.0291,0.0304,0.0312,0.0325,0.0333,0.034,0.035,0.0362,0.0373,0.0381,0.0394,0.0411,0.0424,0.0434,0.0439,0.0443,0.0434,0.0442,0.0469,0.0474,0.0478,0.0479,0.0435,0.0435,0.0413,0.0413,0.0413]}]]